カタログに戻る

STARLINK-36961

運用中通信SSO
NORAD 68900·PAYLOAD·🇺🇸 United States

打ち上げ Apr 30, 2026 から Vandenberg Space Force Base

Loading…

次のパス (今後24時間)

TLE

最新Source: CelesTrak SupGP

元期: Sep 14, 2026, 21:12 UTC

1 68900C 26097F   26257.88381944  .00075163  00000+0  23340-2 0  2576
2 68900  97.2851  92.0895 0001662  93.3490 142.6486 15.33390487    18

AllMySatでSTARLINK-36961をリアルタイム追跡

Download on the App Store